User: anonymous   Login
Location: Unspecified
(0.0000°N, 0.0000°E)
Time: 13:53:09
(UTC+00:00)
Language:

NATO 4A - Orbit

View from above orbital plane
View from above orbital plane
View from above satellite
View from above satellite

Ground track
Ground track

The orbit data is extracted from the following two-line orbital elements,

1 21047U 91001A   17323.39194948 -.00000131 +00000-0 +00000-0 0  9994
2 21047 013.1448 015.8518 0006164 210.8445 172.0094 00.98284446097347
Epoch (UTC): 19 November 2017 09:24:24
Eccentricity: 0.0006164
inclination: 13.1448°
perigee height: 36326 km
apogee height: 36379 km
right ascension of ascending node: 15.8518°
argument of perigee: 210.8445°
revolutions per day: 0.98284446
mean anomaly at epoch: 172.0094°
orbit number at epoch: 9734

The dashed part of the orbit path shows where the satellite is in the earth's shadow,  

DLR